Time,TemperatureF,DewpointF,PressureIn,WindDirection,WindDirectionDegrees,WindSpeedMPH,WindSpeedGustMPH,Humidity,HourlyPrecipIn,Conditions,Clouds,dailyrainin,SolarRadiationWatts/m^2,SoftwareType,DateUTC
2013-03-27 00:01:00,69.8,36.0,30.09,NW,306,13.0,-999.0,29,-99.99,,,0.00,0,weatherlink.com 1.10,2013-03-27 07:01:00,
2013-03-27 00:16:00,69.6,37.0,30.09,NNW,329,7.0,-999.0,30,-99.99,,,0.00,0,weatherlink.com 1.10,2013-03-27 07:16:00,
2013-03-27 01:01:00,69.0,38.0,30.09,NNW,336,8.0,-999.0,32,-99.99,,,0.00,0,weatherlink.com 1.10,2013-03-27 08:01:00,
2013-03-27 01:16:00,68.9,38.0,30.09,NW,321,2.0,-999.0,32,-99.99,,,0.00,0,weatherlink.com 1.10,2013-03-27 08:16:00,
2013-03-27 01:31:00,68.6,37.0,30.09,North,5,0.0,-999.0,32,-99.99,,,0.00,0,weatherlink.com 1.10,2013-03-27 08:31:00,
2013-03-27 01:46:00,68.3,39.0,30.09,NNW,333,4.0,-999.0,34,-99.99,,,0.00,0,weatherlink.com 1.10,2013-03-27 08:46:00,
2013-03-27 02:01:00,67.6,39.0,30.09,NNW,346,0.0,-999.0,35,-99.99,,,0.00,0,weatherlink.com 1.10,2013-03-27 09:01:00,
2013-03-27 02:16:00,67.1,38.0,30.08,North,355,5.0,-999.0,35,-99.99,,,0.00,0,weatherlink.com 1.10,2013-03-27 09:16:00,
2013-03-27 02:31:00,66.5,39.0,30.08,NNW,348,5.0,-999.0,36,-99.99,,,0.00,0,weatherlink.com 1.10,2013-03-27 09:31:00,
2013-03-27 02:46:00,66.0,38.0,30.08,NNW,344,2.0,-999.0,36,-99.99,,,0.00,0,weatherlink.com 1.10,2013-03-27 09:46:00,
2013-03-27 03:01:00,66.4,39.0,30.08,North,5,4.0,-999.0,37,-99.99,,,0.00,0,weatherlink.com 1.10,2013-03-27 10:01:00,
2013-03-27 03:16:00,65.9,39.0,30.08,NNW,346,0.0,-999.0,38,-99.99,,,0.00,0,weatherlink.com 1.10,2013-03-27 10:16:00,
2013-03-27 03:31:00,65.3,40.0,30.07,NNW,348,0.0,-999.0,39,-99.99,,,0.00,0,weatherlink.com 1.10,2013-03-27 10:31:00,
2013-03-27 03:46:00,64.6,40.0,30.07,NNW,348,0.0,-999.0,41,-99.99,,,0.00,0,weatherlink.com 1.10,2013-03-27 10:46:00,
2013-03-27 04:01:00,63.6,42.0,30.08,NNW,348,0.0,-999.0,45,-99.99,,,0.00,0,weatherlink.com 1.10,2013-03-27 11:01:00,
2013-03-27 04:16:00,62.4,41.0,30.08,NNW,348,0.0,-999.0,45,-99.99,,,0.00,0,weatherlink.com 1.10,2013-03-27 11:16:00,
2013-03-27 04:32:00,62.1,40.0,30.08,NNW,346,0.0,-999.0,44,-99.99,,,0.00,0,weatherlink.com 1.10,2013-03-27 11:32:00,
2013-03-27 04:47:00,64.1,40.0,30.08,NW,311,2.0,-999.0,41,-99.99,,,0.00,0,weatherlink.com 1.10,2013-03-27 11:47:00,
2013-03-27 05:02:00,66.2,38.0,30.09,NW,323,6.0,-999.0,36,-99.99,,,0.00,0,weatherlink.com 1.10,2013-03-27 12:02:00,
2013-03-27 05:17:00,66.9,38.0,30.09,NNW,346,0.0,-999.0,34,-99.99,,,0.00,0,weatherlink.com 1.10,2013-03-27 12:17:00,
2013-03-27 05:32:00,66.5,37.0,30.09,NNW,334,0.0,-999.0,34,-99.99,,,0.00,0,weatherlink.com 1.10,2013-03-27 12:32:00,
2013-03-27 05:47:00,65.4,38.0,30.10,NNW,334,0.0,-999.0,37,-99.99,,,0.00,0,weatherlink.com 1.10,2013-03-27 12:47:00,
2013-03-27 06:02:00,64.3,37.0,30.10,NNW,334,0.0,-999.0,37,-99.99,,,0.00,0,weatherlink.com 1.10,2013-03-27 13:02:00,
2013-03-27 06:17:00,63.8,38.0,30.11,NNW,334,0.0,-999.0,39,-99.99,,,0.00,0,weatherlink.com 1.10,2013-03-27 13:17:00,
2013-03-27 06:32:00,63.0,39.0,30.11,NNW,334,0.0,-999.0,41,-99.99,,,0.00,0,weatherlink.com 1.10,2013-03-27 13:32:00,
2013-03-27 06:47:00,63.2,38.0,30.12,NNW,334,0.0,-999.0,39,-99.99,,,0.00,9,weatherlink.com 1.10,2013-03-27 13:47:00,
2013-03-27 07:02:00,64.2,38.0,30.12,NNW,334,0.0,-999.0,38,-99.99,,,0.00,40,weatherlink.com 1.10,2013-03-27 14:02:00,
2013-03-27 07:17:00,64.7,38.0,30.12,NNW,334,0.0,-999.0,38,-99.99,,,0.00,100,weatherlink.com 1.10,2013-03-27 14:17:00,
2013-03-27 07:32:00,66.0,39.0,30.13,NNW,334,0.0,-999.0,37,-99.99,,,0.00,185,weatherlink.com 1.10,2013-03-27 14:32:00,
2013-03-27 07:47:00,67.2,40.0,30.14,NNW,334,0.0,-999.0,37,-99.99,,,0.00,202,weatherlink.com 1.10,2013-03-27 14:47:00,
2013-03-27 08:02:00,68.2,41.0,30.14,NNW,333,0.0,-999.0,38,-99.99,,,0.00,316,weatherlink.com 1.10,2013-03-27 15:02:00,
2013-03-27 08:17:00,70.0,40.0,30.14,NNW,346,2.0,-999.0,33,-99.99,,,0.00,359,weatherlink.com 1.10,2013-03-27 15:17:00,
2013-03-27 08:32:00,71.0,40.0,30.15,NW,307,2.0,-999.0,32,-99.99,,,0.00,325,weatherlink.com 1.10,2013-03-27 15:32:00,
2013-03-27 08:47:00,71.3,40.0,30.15,North,360,3.0,-999.0,32,-99.99,,,0.00,373,weatherlink.com 1.10,2013-03-27 15:47:00,
2013-03-27 09:02:00,72.4,39.0,30.15,NW,325,1.0,-999.0,30,-99.99,,,0.00,575,weatherlink.com 1.10,2013-03-27 16:02:00,
2013-03-27 09:17:00,73.5,39.0,30.15,NW,321,0.0,-999.0,29,-99.99,,,0.00,443,weatherlink.com 1.10,2013-03-27 16:17:00,
2013-03-27 09:32:00,74.1,39.0,30.15,North,350,7.0,-999.0,28,-99.99,,,0.00,624,weatherlink.com 1.10,2013-03-27 16:32:00,
2013-03-27 09:47:00,74.9,41.0,30.16,North,351,0.0,-999.0,29,-99.99,,,0.00,557,weatherlink.com 1.10,2013-03-27 16:47:00,
2013-03-27 10:02:00,75.5,40.0,30.16,NW,306,0.0,-999.0,28,-99.99,,,0.00,710,weatherlink.com 1.10,2013-03-27 17:02:00,
2013-03-27 10:17:00,76.5,41.0,30.16,North,9,0.0,-999.0,28,-99.99,,,0.00,520,weatherlink.com 1.10,2013-03-27 17:17:00,
2013-03-27 10:32:00,76.4,40.0,30.16,NNW,337,0.0,-999.0,27,-99.99,,,0.00,520,weatherlink.com 1.10,2013-03-27 17:32:00,
2013-03-27 10:48:00,77.1,42.0,30.16,NW,318,0.0,-999.0,29,-99.99,,,0.00,670,weatherlink.com 1.10,2013-03-27 17:48:00,
2013-03-27 11:03:00,77.8,41.0,30.15,NW,318,0.0,-999.0,27,-99.99,,,0.00,519,weatherlink.com 1.10,2013-03-27 18:03:00,
2013-03-27 11:18:00,78.0,41.0,30.16,NW,318,0.0,-999.0,27,-99.99,,,0.00,506,weatherlink.com 1.10,2013-03-27 18:18:00,
2013-03-27 11:33:00,78.4,42.0,30.15,NW,318,2.0,-999.0,27,-99.99,,,0.00,615,weatherlink.com 1.10,2013-03-27 18:33:00,
2013-03-27 11:48:00,78.7,42.0,30.15,NW,318,2.0,-999.0,27,-99.99,,,0.00,485,weatherlink.com 1.10,2013-03-27 18:48:00,
2013-03-27 12:03:00,79.2,42.0,30.15,NW,318,0.0,-999.0,27,-99.99,,,0.00,473,weatherlink.com 1.10,2013-03-27 19:03:00,
2013-03-27 12:18:00,80.3,44.0,30.15,NW,318,0.0,-999.0,28,-99.99,,,0.00,461,weatherlink.com 1.10,2013-03-27 19:18:00,
2013-03-27 12:33:00,80.9,42.0,30.14,NW,318,0.0,-999.0,25,-99.99,,,0.00,527,weatherlink.com 1.10,2013-03-27 19:33:00,
2013-03-27 12:48:00,81.8,43.0,30.14,NW,318,0.0,-999.0,25,-99.99,,,0.00,585,weatherlink.com 1.10,2013-03-27 19:48:00,
2013-03-27 13:03:00,82.5,42.0,30.13,NW,318,0.0,-999.0,24,-99.99,,,0.00,587,weatherlink.com 1.10,2013-03-27 20:03:00,
2013-03-27 13:18:00,82.9,43.0,30.12,NW,318,0.0,-999.0,24,-99.99,,,0.00,744,weatherlink.com 1.10,2013-03-27 20:18:00,
2013-03-27 13:33:00,83.4,42.0,30.12,NW,318,0.0,-999.0,23,-99.99,,,0.00,735,weatherlink.com 1.10,2013-03-27 20:33:00,
2013-03-27 13:48:00,84.6,44.0,30.11,NW,318,0.0,-999.0,24,-99.99,,,0.00,861,weatherlink.com 1.10,2013-03-27 20:48:00,
2013-03-27 14:03:00,85.7,41.0,30.11,NW,318,0.0,-999.0,21,-99.99,,,0.00,828,weatherlink.com 1.10,2013-03-27 21:03:00,
2013-03-27 14:18:00,86.1,43.0,30.10,NW,318,0.0,-999.0,22,-99.99,,,0.00,424,weatherlink.com 1.10,2013-03-27 21:18:00,
2013-03-27 14:33:00,85.3,44.0,30.10,NW,318,0.0,-999.0,23,-99.99,,,0.00,650,weatherlink.com 1.10,2013-03-27 21:33:00,
2013-03-27 14:48:00,85.0,42.0,30.10,NW,318,0.0,-999.0,22,-99.99,,,0.00,265,weatherlink.com 1.10,2013-03-27 21:48:00,
2013-03-27 15:03:00,84.4,43.0,30.09,NW,319,0.0,-999.0,23,-99.99,,,0.00,255,weatherlink.com 1.10,2013-03-27 22:03:00,
2013-03-27 15:18:00,84.4,42.0,30.09,NW,319,0.0,-999.0,22,-99.99,,,0.00,216,weatherlink.com 1.10,2013-03-27 22:18:00,
2013-03-27 15:33:00,84.1,40.0,30.09,NW,318,0.0,-999.0,21,-99.99,,,0.00,220,weatherlink.com 1.10,2013-03-27 22:33:00,
2013-03-27 15:48:00,83.9,41.0,30.08,NW,318,0.0,-999.0,22,-99.99,,,0.00,229,weatherlink.com 1.10,2013-03-27 22:48:00,
2013-03-27 16:03:00,84.4,42.0,30.08,NW,319,0.0,-999.0,22,-99.99,,,0.00,492,weatherlink.com 1.10,2013-03-27 23:03:00,
2013-03-27 16:18:00,86.0,41.0,30.07,NW,319,0.0,-999.0,20,-99.99,,,0.00,346,weatherlink.com 1.10,2013-03-27 23:18:00,
2013-03-27 16:33:00,86.1,41.0,30.07,NNW,330,0.0,-999.0,20,-99.99,,,0.00,443,weatherlink.com 1.10,2013-03-27 23:33:00,
2013-03-27 16:48:00,86.5,41.0,30.08,NNW,333,0.0,-999.0,20,-99.99,,,0.00,178,weatherlink.com 1.10,2013-03-27 23:48:00,
2013-03-27 17:03:00,86.8,42.0,30.08,NNW,327,0.0,-999.0,21,-99.99,,,0.00,352,weatherlink.com 1.10,2013-03-28 00:03:00,
2013-03-27 17:18:00,85.9,42.0,30.07,SW,227,2.0,-999.0,21,-99.99,,,0.00,301,weatherlink.com 1.10,2013-03-28 00:18:00,
2013-03-27 17:33:00,85.1,42.0,30.08,WNW,292,0.0,-999.0,22,-99.99,,,0.00,251,weatherlink.com 1.10,2013-03-28 00:33:00,
2013-03-27 17:48:00,84.2,41.0,30.08,NW,321,0.0,-999.0,22,-99.99,,,0.00,186,weatherlink.com 1.10,2013-03-28 00:48:00,
2013-03-27 18:03:00,83.6,43.0,30.09,West,277,5.0,-999.0,24,-99.99,,,0.00,132,weatherlink.com 1.10,2013-03-28 01:03:00,
2013-03-27 18:18:00,82.6,43.0,30.09,WNW,291,4.0,-999.0,25,-99.99,,,0.00,76,weatherlink.com 1.10,2013-03-28 01:18:00,
2013-03-27 18:33:00,81.8,44.0,30.09,WNW,288,0.0,-999.0,26,-99.99,,,0.00,33,weatherlink.com 1.10,2013-03-28 01:33:00,
2013-03-27 18:48:00,80.8,44.0,30.10,WNW,288,0.0,-999.0,27,-99.99,,,0.00,14,weatherlink.com 1.10,2013-03-28 01:48:00,
2013-03-27 19:03:00,79.4,44.0,30.11,NNW,330,0.0,-999.0,28,-99.99,,,0.00,5,weatherlink.com 1.10,2013-03-28 02:03:00,
2013-03-27 19:18:00,78.1,43.0,30.11,NNE,13,0.0,-999.0,29,-99.99,,,0.00,0,weatherlink.com 1.10,2013-03-28 02:18:00,
2013-03-27 19:33:00,77.3,44.0,30.12,North,11,0.0,-999.0,30,-99.99,,,0.00,0,weatherlink.com 1.10,2013-03-28 02:33:00,
2013-03-27 19:48:00,76.4,44.0,30.13,North,10,0.0,-999.0,32,-99.99,,,0.00,0,weatherlink.com 1.10,2013-03-28 02:48:00,
2013-03-27 20:03:00,75.4,43.0,30.13,North,10,0.0,-999.0,32,-99.99,,,0.00,0,weatherlink.com 1.10,2013-03-28 03:03:00,
2013-03-27 20:18:00,75.0,44.0,30.14,North,11,0.0,-999.0,33,-99.99,,,0.00,0,weatherlink.com 1.10,2013-03-28 03:18:00,
2013-03-27 20:33:00,74.3,46.0,30.14,North,11,0.0,-999.0,36,-99.99,,,0.00,0,weatherlink.com 1.10,2013-03-28 03:33:00,
2013-03-27 20:48:00,73.3,47.0,30.15,NNW,342,0.0,-999.0,39,-99.99,,,0.00,0,weatherlink.com 1.10,2013-03-28 03:48:00,
2013-03-27 21:03:00,72.4,47.0,30.16,North,5,0.0,-999.0,40,-99.99,,,0.00,0,weatherlink.com 1.10,2013-03-28 04:03:00,
2013-03-27 21:18:00,71.8,47.0,30.16,North,360,6.0,-999.0,41,-99.99,,,0.00,0,weatherlink.com 1.10,2013-03-28 04:18:00,
2013-03-27 21:33:00,71.3,46.0,30.16,NNW,327,0.0,-999.0,41,-99.99,,,0.00,0,weatherlink.com 1.10,2013-03-28 04:33:00,
2013-03-27 21:48:00,71.1,47.0,30.17,NNE,22,7.0,-999.0,42,-99.99,,,0.00,0,weatherlink.com 1.10,2013-03-28 04:48:00,
2013-03-27 22:04:00,71.0,47.0,30.17,NNE,17,7.0,-999.0,43,-99.99,,,0.00,0,weatherlink.com 1.10,2013-03-28 05:04:00,
2013-03-27 22:19:00,70.7,46.0,30.17,North,360,1.0,-999.0,42,-99.99,,,0.00,0,weatherlink.com 1.10,2013-03-28 05:19:00,
2013-03-27 22:34:00,70.3,46.0,30.17,NNW,345,0.0,-999.0,42,-99.99,,,0.00,0,weatherlink.com 1.10,2013-03-28 05:34:00,
2013-03-27 22:49:00,69.9,46.0,30.17,North,355,1.0,-999.0,42,-99.99,,,0.00,0,weatherlink.com 1.10,2013-03-28 05:49:00,
2013-03-27 23:04:00,69.5,45.0,30.17,NNW,336,0.0,-999.0,42,-99.99,,,0.00,0,weatherlink.com 1.10,2013-03-28 06:04:00,
2013-03-27 23:19:00,68.9,45.0,30.18,NNW,336,0.0,-999.0,43,-99.99,,,0.00,0,weatherlink.com 1.10,2013-03-28 06:19:00,
2013-03-27 23:34:00,68.2,46.0,30.18,NNW,336,0.0,-999.0,45,-99.99,,,0.00,0,weatherlink.com 1.10,2013-03-28 06:34:00,
2013-03-27 23:49:00,67.7,45.0,30.18,NNW,336,0.0,-999.0,45,-99.99,,,0.00,0,weatherlink.com 1.10,2013-03-28 06:49:00,